STARLINK-5709, 55621

Orbit data source: Space-Track

STARLINK-5709, 55621 is a payload satellite owned by SpaceX/Seattle (US) in LEO that was launched on Sun, 12 Feb 2023 UTC via an FALCON 9 launch vehicle from the Air Force Eastern Test Range (AFETR). Payload-class satellites include a variety of spacecraft equipped with specific instruments for various scientific and technological missions. These include communications satellites like Starlink; space stations such as the ISS; scientific satellites like the Hubble; Earth observation satellites from companies like Planet Labs, Umbra, and HawkEye 360; GPS; miniature CubeSats for education and research; and military/defense satellites.

Loading next visibility...
Identifier
55621, 2023-020BE
Orbit
LEO
Country
Flag of USUS
Related business
Manufacturer
SpaceX/Seattle
Mission
Operational Commercial Communications
Bus & Motor
STARLINK, Unknown motor
Mass
305 kg wet, ~290 kg dry
Launch date (UTC)
2023-02-12 (3 years ago)
Launch vehicle
FALCON 9
Launch site
Air Force Eastern Test Range (AFETR)
Object type
Payload
Rocket body
Debris
Shape & HBR
Box + 1 Pan, 10.1 m
Radar Cross Section
13.562 m², Large (>1 m²)

Expand to show TLE details & history
Last TLE update: 11 hours ago

TLE from 11 hours ago
0 STARLINK-5709
1 55621U 23020BE  26061.92960941 -.00001847  00000-0 -12174-3 0  9991
2 55621  43.0054  28.2913 0001113 263.9809  96.0907 15.02523537168059
Epoch: 2026-03-02T22:18Z
TLE epoch observation values (Epoch: 2026-03-02T22:18:38.253Z)
Latitude
0.00003°
Longitude
-107.08402°
Altitude
558.978 km
Speed
7.584 km/s
True Right ascension
01h 53m 09s
True Declination
0° 00' 00"
Sunlit
Object was in daylight at epoch
Visualization orbit readout
Latitude
Unknown
Longitude
Unknown
Altitude
Unknown
Speed
Unknown
Apparent Right ascension
Unknown
Apparent Declination
Unknown
Sunlit
N/A
Visualization observer readout
Local Sidereal Time
13:12:02
Azimuth
Unknown
Elevation
Unknown
Doppler factor
Unknown
Orbital elements
Apogee altitude
561.813 km
Perigee altitude
560.269 km
Semi-major axis
6,939.178 km
Eccentricity
0.00011
Inclination
43.0054°
RAAN
28.2913°
Arg. of periapsis
263.9809°
True anomaly
96.10338°
Mean anomaly
96.0907°
Eccentric anomaly
96.09704°
Mean motion
3.75475 °/min
Orbital period
95.88 mins
BSTAR
-0.00012174
Loading maneuver chart data...
Computing Atmospheric mass density...
Loading historical data...
Loading historical data...
Loading historical data...
Loading historical data...
Loading historical data...
Loading historical data...
Loading historical data...

Documentation

Showing up to 5 results
|